This is the latest recevied weather packets stored in our database for station/object W4MSI. If no packets are shown the sender has not sent any weather packets the latest 10 day(s).
| Time | Temp. | Humidity | Pressure | Rain* | Wind** | Luminosity | Snow |
|---|---|---|---|---|---|---|---|
| 1777226709 | 24.44° C | 50% | 1013.6 hPa | 0 mm | - | 169 W/m² | - |
| 1777226404 | 25.56° C | 48% | 1013.7 hPa | 0 mm | - | 192 W/m² | - |
| 1777226100 | 25.56° C | 54% | 1013.7 hPa | 0 mm | - | 939 W/m² | - |
| 1777225795 | 25.56° C | 50% | 1013.9 hPa | 0 mm | - | 949 W/m² | - |
| 1777225493 | 25° C | 50% | 1014.1 hPa | 0 mm | - | 929 W/m² | - |
| 1777225190 | 24.44° C | 52% | 1013.9 hPa | 0 mm | - | 909 W/m² | - |
| 1777224886 | 25° C | 49% | 1014 hPa | 0 mm | - | 918 W/m² | - |
| 1777224582 | 25° C | 47% | 1014.1 hPa | 0 mm | - | 914 W/m² | - |
| 1777224278 | 24.44° C | 50% | 1014.3 hPa | 0 mm | - | 921 W/m² | - |
| 1777223975 | 23.89° C | 52% | 1014.4 hPa | 0 mm | - | 475 W/m² | - |
| 1777223672 | 25° C | 51% | 1014.2 hPa | 0 mm | - | 214 W/m² | - |
| 1777223368 | 25° C | 52% | 1014.1 hPa | 0 mm | - | 934 W/m² | - |
| 1777223066 | 24.44° C | 51% | 1014.2 hPa | 0 mm | - | 920 W/m² | - |
| 1777222762 | 23.89° C | 51% | 1014.2 hPa | 0 mm | - | 884 W/m² | - |
| 1777222460 | 23.89° C | 53% | 1014.2 hPa | 0 mm | - | 863 W/m² | - |
| 1777222158 | 24.44° C | 49% | 1014.4 hPa | 0 mm | - | 234 W/m² | - |
| 1777221855 | 23.89° C | 49% | 1014.2 hPa | 0 mm | - | 862 W/m² | - |
| 1777221550 | 23.89° C | 52% | 1014.4 hPa | 0 mm | - | 852 W/m² | - |
| 1777221248 | 23.89° C | 51% | 1014.4 hPa | 0 mm | - | 867 W/m² | - |
| 1777220944 | 23.89° C | 53% | 1014.4 hPa | 0 mm | - | 834 W/m² | - |
| 1777220640 | 23.89° C | 49% | 1014.3 hPa | 0 mm | - | 804 W/m² | - |
| 1777220337 | 23.89° C | 53% | 1014.4 hPa | 0 mm | - | 788 W/m² | - |
| 1777220036 | 23.89° C | 53% | 1014.4 hPa | 0 mm | - | 784 W/m² | - |
| 1777219734 | 24.44° C | 55% | 1014.6 hPa | 0 mm | - | 750 W/m² | - |
| 1777219431 | 23.89° C | 60% | 1014.6 hPa | 0 mm | - | 727 W/m² | - |
* Rain latest hour (hover to see other rain measurements)
** Current wind speed in m/s (hover to see current wind gust speed)